Terug naar catalogus

STARLINK-30877

ActiefCommunicatieVLEO
NORAD 58242·PAYLOAD·🇺🇸 United States

Gelanceerd Nov 8, 2023 vanaf Cape Canaveral Space Force Station

Loading…

Volgende Passages (komende 24 uur)

TLE

VersSource: CelesTrak SupGP

Epoch: Sep 15, 2026, 02:39 UTC

1 58242C 23171N   26258.11090278  .00021748  00000+0  78787-3 0  2585
2 58242  43.0032 295.3472 0002007 265.7944 162.4171 15.27560312    18

Volg STARLINK-30877 in realtime met AllMySat

Download on the App Store